Atlantic
Saturday 11:15 PM
Temperature36° (48°/23°)
Dew Point28°
Relative Humidity75
%
Visibility10
mi
Pressure1020.0
mb
Wind Direction
Wind SpeedCalm
Precipitation Today0.00"

Last 30 Observations

Time PresWx Temp DP Feels RH% Vsby Pressure Ceiling Direction Speed 1h Precip
10:55 PM 36° 27° 69
%
10
mi
1020.0
mb
10,000
ft
Calm 0.00"
10:35 PM 32° 27° 80
%
10
mi
1020.0
mb
10,000
ft
Calm 0.00"
10:15 PM 36° 27° 32°69
%
10
mi
1020.0
mb
NNE
20°
5
mph
0.00"
9:55 PM 37° 27° 34°65
%
10
mi
1020.0
mb
NE
50°
5
mph
0.00"
9:35 PM 36° 28° 32°75
%
10
mi
1019.7
mb
ENE
70°
5
mph
0.00"
9:15 PM 39° 27° 37°60
%
10
mi
1019.7
mb
ENE
70°
3
mph
0.00"
8:55 PM 41° 27° 56
%
10
mi
1019.7
mb
Calm 0.00"
8:35 PM 41° 27° 56
%
10
mi
1019.3
mb
Calm 0.00"
8:15 PM 45° 27° 42°49
%
10
mi
1019.3
mb
E
100°
5
mph
0.00"
7:55 PM 45° 25° 41°45
%
10
mi
1019.3
mb
ESE
110°
6
mph
0.00"
7:35 PM 46° 25° 43°42
%
10
mi
1019.7
mb
ESE
120°
6
mph
0.00"
7:15 PM 46° 25° 43°42
%
10
mi
1019.7
mb
E
100°
7
mph
(G13)
0.00"
6:55 PM 48° 25° 45°40
%
10
mi
1019.7
mb
10,000
ft
E
100°
8
mph
0.00"
6:35 PM 48° 25° 45°40
%
10
mi
1019.7
mb
10,000
ft
ESE
110°
7
mph
0.00"
6:15 PM 48° 25° 46°40
%
10
mi
1019.7
mb
10,000
ft
SE
130°
6
mph
(G11)
0.00"
5:55 PM 48° 23° 44°37
%
10
mi
1019.3
mb
10,000
ft
E
100°
9
mph
0.00"
5:35 PM 48° 25° 43°40
%
10
mi
1019.7
mb
ESE
110°
11
mph
0.00"
5:15 PM 48° 23° 45°37
%
10
mi
1019.7
mb
E
90°
8
mph
0.00"
4:55 PM 48° 23° 45°37
%
10
mi
1019.7
mb
Variable 7
mph
(G15)
0.00"
4:35 PM 48° 23° 37
%
10
mi
1019.7
mb
0.00"
4:15 PM 48° 23° 44°37
%
10
mi
1020.0
mb
E
90°
9
mph
0.00"
3:55 PM 48° 23° 45°37
%
10
mi
1020.3
mb
E
90°
8
mph
0.00"
3:35 PM 46° 27° 42°46
%
10
mi
1020.7
mb
ENE
70°
8
mph
0.00"
3:15 PM 46° 27° 43°46
%
10
mi
1021.0
mb
E
100°
7
mph
0.00"
2:55 PM 45° 27° 39°49
%
10
mi
1021.3
mb
ENE
70°
10
mph
0.00"
2:35 PM 43° 27° 38°52
%
10
mi
1021.7
mb
E
80°
8
mph
0.00"
2:15 PM 43° 28° 37°57
%
10
mi
1022.0
mb
E
100°
9
mph
0.00"
1:55 PM 41° 27° 35°56
%
10
mi
1022.4
mb
E
100°
9
mph
0.00"
1:35 PM 41° 25° 34°52
%
10
mi
1023.0
mb
ENE
60°
11
mph
0.00"
1:15 PM 41° 25° 34°52
%
10
mi
1023.4
mb
NE
50°
13
mph
0.00"